| time (UTC) | temp C | wind direction | speed KPH | gust KPH | rain 1hr cm | rain 24hr cm | rain mn cm | humidity % | barometer mb |
| 20260506024544 | 17 | 74 | 0.0 | 3.2 | 0.00 | 0.10 | 0.10 | 60 | 1006.5 |
| 20260506023042 | 18 | 74 | 0.0 | 3.2 | 0.00 | 0.10 | 0.10 | 59 | 1006.6 |
| 20260506021538 | 18 | 74 | 0.0 | 3.2 | 0.00 | 0.10 | 0.10 | 58 | 1006.5 |
| 20260506020036 | 18 | 74 | 0.0 | 3.2 | 0.00 | 0.10 | 0.10 | 57 | 1006.5 |
| 20260506014544 | 19 | 74 | 0.0 | 3.2 | 0.00 | 0.10 | 0.10 | 56 | 1006.4 |
| 20260506013031 | 19 | 360 | 0.0 | 3.2 | 0.00 | 0.10 | 0.10 | 55 | 1006.2 |
| 20260506011528 | 20 | 360 | 0.0 | 3.2 | 0.00 | 0.10 | 0.10 | 53 | 1006.1 |
| 20260506010029 | 20 | 84 | 0.0 | 3.2 | 0.00 | 0.10 | 0.10 | 52 | 1006.0 |
| 20260506004537 | 21 | 47 | 0.0 | 4.8 | 0.00 | 0.10 | 0.10 | 50 | 1005.9 |
| 20260506003027 | 21 | 53 | 3.2 | 14.5 | 0.00 | 0.10 | 0.10 | 49 | 1005.5 |
| 20260506001523 | 22 | 85 | 0.0 | 6.4 | 0.00 | 0.10 | 0.10 | 48 | 1005.5 |
| 20260506000019 | 22 | 129 | 3.2 | 14.5 | 0.00 | 0.10 | 0.10 | 47 | 1005.3 |
| 20260505234518 | 23 | 42 | 1.6 | 4.8 | 0.00 | 0.10 | 0.10 | 45 | 1005.1 |
| 20260505233013 | 24 | 305 | 0.0 | 11.3 | 0.00 | 0.10 | 0.10 | 41 | 1005.0 |
| 20260505231514 | 25 | 120 | 3.2 | 20.9 | 0.00 | 0.10 | 0.10 | 38 | 1004.9 |
| 20260505230015 | 25 | 142 | 8.0 | 27.4 | 0.00 | 0.10 | 0.10 | 38 | 1004.9 |
| 20260505224510 | 25 | 169 | 8.0 | 25.7 | 0.00 | 0.10 | 0.10 | 38 | 1004.8 |
| 20260505223009 | 26 | 80 | 9.7 | 24.1 | 0.00 | 0.10 | 0.10 | 37 | 1004.9 |
| 20260505221503 | 26 | 40 | 6.4 | 17.7 | 0.00 | 0.10 | 0.10 | 37 | 1004.8 |
| 20260505220006 | 26 | 48 | 8.0 | 24.1 | 0.00 | 0.10 | 0.10 | 39 | 1004.8 |
| 20260505214608 | 26 | 119 | 9.7 | 24.1 | 0.00 | 0.10 | 0.10 | 37 | 1004.6 |
| 20260505213059 | 26 | 53 | 11.3 | 35.4 | 0.00 | 0.10 | 0.10 | 36 | 1004.7 |
| 20260505211553 | 26 | 78 | 4.8 | 22.5 | 0.00 | 0.10 | 0.10 | 39 | 1004.7 |
| 20260505210052 | 27 | 338 | 9.7 | 20.9 | 0.00 | 0.10 | 0.10 | 37 | 1004.7 |
| 20260505204546 | 27 | 164 | 8.0 | 25.7 | 0.00 | 0.10 | 0.10 | 38 | 1004.6 |
| 20260505203048 | 27 | 69 | 12.9 | 27.4 | 0.00 | 0.10 | 0.10 | 37 | 1004.8 |
| 20260505201551 | 27 | 79 | 9.7 | 22.5 | 0.00 | 0.10 | 0.10 | 37 | 1004.8 |
| 20260505200022 | 27 | 79 | 11.3 | 29.0 | 0.00 | 0.10 | 0.10 | 37 | 1004.8 |
| 20260505194520 | 27 | 92 | 6.4 | 25.7 | 0.00 | 0.10 | 0.10 | 37 | 1004.8 |
| 20260505193036 | 27 | 121 | 4.8 | 30.6 | 0.00 | 0.10 | 0.10 | 39 | 1004.9 |
| 20260505191513 | 26 | 167 | 8.0 | 25.7 | 0.00 | 0.10 | 0.10 | 40 | 1005.2 |
| 20260505190026 | 27 | 58 | 3.2 | 25.7 | 0.00 | 0.10 | 0.10 | 38 | 1005.4 |
| 20260505184511 | 27 | 107 | 11.3 | 29.0 | 0.00 | 0.10 | 0.10 | 39 | 1005.8 |
| 20260505183015 | 27 | 109 | 12.9 | 25.7 | 0.00 | 0.10 | 0.10 | 38 | 1005.7 |
| 20260505181513 | 27 | 109 | 12.9 | 27.4 | 0.00 | 0.10 | 0.10 | 41 | 1006.0 |
| 20260505180006 | 27 | 103 | 6.4 | 17.7 | 0.00 | 0.10 | 0.10 | 42 | 1006.2 |
| 20260505174505 | 27 | 61 | 9.7 | 20.9 | 0.00 | 0.10 | 0.10 | 40 | 1006.0 |
| 20260505173001 | 27 | 202 | 12.9 | 32.2 | 0.00 | 0.10 | 0.10 | 39 | 1006.4 |
| 20260505171601 | 26 | 220 | 6.4 | 27.4 | 0.00 | 0.10 | 0.10 | 43 | 1006.5 |
| 20260505170108 | 26 | 117 | 9.7 | 25.7 | 0.00 | 0.10 | 0.10 | 45 | 1006.6 |
| 20260505164557 | 26 | 106 | 4.8 | 19.3 | 0.00 | 0.10 | 0.10 | 44 | 1006.9 |
| 20260505163105 | 26 | 129 | 6.4 | 24.1 | 0.00 | 0.10 | 0.10 | 47 | 1007.0 |
| 20260505161551 | 25 | 110 | 8.0 | 24.1 | 0.00 | 0.10 | 0.10 | 47 | 1007.2 |
| 20260505153048 | 23 | 53 | 1.6 | 16.1 | 0.00 | 0.10 | 0.10 | 54 | 1007.7 |
| 20260505151541 | 23 | 59 | 8.0 | 19.3 | 0.00 | 0.10 | 0.10 | 53 | 1008.0 |
| 20260505130103 | 17 | 108 | 1.6 | 4.8 | 0.00 | 0.10 | 0.10 | 85 | 1009.0 |
| 20260505124608 | 15 | 238 | 0.0 | 1.6 | 0.00 | 0.10 | 0.10 | 90 | 1008.9 |
| 20260505123111 | 13 | 240 | 0.0 | 1.6 | 0.00 | 0.10 | 0.10 | 97 | 1008.9 |
| 20260505121555 | 12 | 240 | 0.0 | 1.6 | 0.00 | 0.10 | 0.10 | 98 | 1009.0 |
| 20260505120054 | 11 | 239 | 0.0 | 3.2 | 0.00 | 0.10 | 0.10 | 98 | 1008.7 |
| 20260505114559 | 10 | 229 | 0.0 | 1.6 | 0.03 | 0.10 | 0.10 | 97 | 1008.9 |
| 20260505113050 | 10 | 229 | 0.0 | 1.6 | 0.03 | 0.10 | 0.10 | 97 | 1008.8 |
| 20260505111546 | 9 | 229 | 0.0 | 0.0 | 0.03 | 0.10 | 0.10 | 97 | 1008.8 |
| 20260505101538 | 8 | 229 | 0.0 | 0.0 | 0.00 | 0.08 | 0.08 | 95 | 1008.4 |
| 20260505100033 | 9 | 229 | 0.0 | 0.0 | 0.00 | 0.08 | 0.08 | 95 | 1008.2 |
| 20260505094531 | 9 | 229 | 0.0 | 0.0 | 0.00 | 0.08 | 0.08 | 94 | 1008.2 |
| 20260505093034 | 10 | 229 | 0.0 | 0.0 | 0.00 | 0.08 | 0.08 | 94 | 1008.0 |
| 20260505091538 | 10 | 229 | 0.0 | 0.0 | 0.00 | 0.08 | 0.08 | 94 | 1007.8 |
| 20260505090043 | 10 | 229 | 0.0 | 0.0 | 0.00 | 0.08 | 0.08 | 94 | 1007.9 |
| 20260505084525 | 10 | 245 | 0.0 | 1.6 | 0.05 | 0.08 | 0.08 | 93 | 1008.0 |
| 20260505083018 | 11 | 245 | 0.0 | 1.6 | 0.05 | 0.08 | 0.08 | 93 | 1007.9 |
| 20260505081524 | 11 | 245 | 0.0 | 3.2 | 0.08 | 0.08 | 0.08 | 93 | 1007.8 |
| 20260505080038 | 11 | 243 | 0.0 | 4.8 | 0.08 | 0.08 | 0.08 | 92 | 1008.0 |
| 20260505074513 | 11 | 214 | 0.0 | 4.8 | 0.03 | 0.03 | 0.03 | 91 | 1008.3 |
| 20260505073014 | 11 | 177 | 4.8 | 9.7 | 0.03 | 0.03 | 0.03 | 88 | 1007.3 |
| 20260505071509 | 11 | 217 | 0.0 | 1.6 | 0.00 | 0.00 | 0.00 | 87 | 1007.9 |
| 20260505070005 | 11 | 230 | 0.0 | 1.6 | 0.00 | 0.00 | 0.00 | 86 | 1007.7 |
| 20260505064503 | 11 | 230 | 0.0 | 0.0 | 0.00 | 0.00 | 0.00 | 85 | 1007.7 |
| 20260505063005 | 11 | 230 | 0.0 | 0.0 | 0.00 | 0.00 | 0.00 | 84 | 1007.8 |
| 20260505061605 | 11 | 230 | 0.0 | 0.0 | 0.00 | 0.00 | 0.00 | 82 | 1007.9 |
| 20260505060100 | 11 | 230 | 0.0 | 1.6 | 0.00 | 0.00 | 0.00 | 82 | 1007.9 |
| 20260505054559 | 10 | 230 | 0.0 | 3.2 | 0.00 | 0.00 | 0.00 | 82 | 1008.0 |
| 20260505053056 | 10 | 148 | 0.0 | 0.0 | 0.00 | 0.00 | 0.00 | 81 | 1008.0 |
| 20260505051556 | 11 | 148 | 0.0 | 0.0 | 0.00 | 0.00 | 0.00 | 79 | 1007.9 |
| 20260505050124 | 11 | 148 | 0.0 | 0.0 | 0.00 | 0.00 | 0.00 | 78 | 1007.9 |
| 20260505041553 | 12 | 226 | 0.0 | 1.6 | 0.00 | 0.00 | 0.00 | 74 | 1007.6 |
| 20260505040052 | 12 | 226 | 0.0 | 4.8 | 0.00 | 0.00 | 0.00 | 73 | 1007.6 |
| 20260505034541 | 12 | 76 | 0.0 | 1.6 | 0.00 | 0.00 | 0.00 | 71 | 1007.4 |
| 20260505033036 | 13 | 76 | 0.0 | 1.6 | 0.00 | 0.00 | 0.00 | 70 | 1007.6 |
| 20260505031540 | 13 | 76 | 0.0 | 1.6 | 0.00 | 0.00 | 0.00 | 68 | 1007.3 |
| 20260505030035 | 13 | 76 | 0.0 | 0.0 | 0.00 | 0.00 | 0.00 | 66 | 1007.6 |